Location: Bambrugge
(50.9212°N, 3.9299°E)
Time: 17:42:34
(UTC+00:00)

CZ-6A DEB - Visible Passes

Search period start: 07 October 2024 00:00
Search period end: 17 October 2024 00:00
Orbit: 706 x 893 km, 98.8° (Epoch: 06 October)

Date Brightness Start Highest point End Pass type
(mag) Time Alt. Az. Time Alt. Az. Time Alt. Az.
07 Oct ? 17:36:21 10° SE 17:41:21 54° ENE 17:46:09 10° N visible
07 Oct ? 19:17:08 10° SSW 19:21:18 25° W 19:25:21 10° NW visible
08 Oct ? 18:49:32 10° SSW 18:54:20 40° W 18:58:59 10° NNW visible
09 Oct ? 18:22:23 10° S 18:27:27 66° WSW 18:32:22 10° NNW visible
10 Oct ? 17:55:35 10° SSE 18:00:39 77° ENE 18:05:33 10° NNW visible
10 Oct ? 19:37:36 10° SW 19:40:51 17° W 19:44:03 10° NW visible
11 Oct ? 17:29:07 10° SE 17:33:56 47° ENE 17:38:35 10° N visible
11 Oct ? 19:09:29 10° SSW 19:13:47 28° W 19:17:59 10° NW visible
12 Oct ? 18:41:58 10° S 18:46:48 45° W 18:51:29 10° NNW visible
13 Oct ? 18:14:52 10° S 18:19:53 76° WSW 18:24:45 10° NNW visible
13 Oct ? 19:58:47 10° WSW 20:00:21 11° W 20:01:55 10° WNW visible
14 Oct ? 17:48:07 10° SSE 17:53:03 66° ENE 17:57:51 10° N visible
14 Oct ? 19:29:37 10° SW 19:33:10 19° W 19:36:39 10° NW visible
15 Oct ? 17:21:43 10° SE 17:26:18 40° ENE 17:30:48 10° N visible
15 Oct ? 19:01:39 10° SSW 19:06:04 32° W 19:10:23 10° NNW visible
16 Oct ? 18:34:13 10° S 18:39:03 53° WSW 18:43:46 10° NNW visible
